Weather History for KBHB - February, 2013

Change the Weather History Date:

Sunday, February 10, 2013

  Actual Average (KBGR) Record (KBGR)
Temperature  
Mean Temperature 24 °F 19 °F  
Max Temperature 35 °F 30 °F 48 °F (2001)
Min Temperature 12 °F 9 °F -32 °F (1948)
Degree Days  
Heating Degree Days 42 46  
Month to date heating degree days 465  
Since 1 July heating degree days 4872  
Cooling Degree Days 0 0  
Month to date cooling degree days 0  
Year to date cooling degree days 0  
Moisture  
Dew Point 7 °F    
Average Humidity 55    
Maximum Humidity 86    
Minimum Humidity 26    
Precipitation  
Precipitation 0.00 in 0.08 in 1.48 in (1969)
Month to date precipitation 0.87  
Year to date precipitation 3.76  
Snow  
Snow 0.00 in 0.50 in 13.00 in (2005)
Month to date snowfall 5.3  
Since 1 July snowfall 41.3  
Snow Depth -    
Sea Level Pressure  
Sea Level Pressure 30.22 in    
Wind  
Wind Speed 9 mph (NNW)    
Max Wind Speed 16 mph    
Max Gust Speed 28 mph    
Visibility 10 miles    
Events      
T = Trace of Precipitation, MM = Missing Value Source: NWS Daily Summary

Daily Weather History Graph

Daily Weather History Graph

Search for Another Location

Airport or City:

Trip Planner

Search our weather history database for the weather conditions in past years. The results will help you decide how hot, cold, wet, or windy it might be!

Date:

Astronomy

Feb. 10, 2013 Rise Set
Actual Time 6:40 AM EST 4:55 PM EST
Civil Twilight 6:10 AM EST 5:25 PM EST
Nautical Twilight 5:35 AM EST 6:00 PM EST
Astronomical Twilight 5:02 AM EST 6:34 PM EST
Moon 6:25 AM EST (2/10) 5:46 PM EST (2/10)
Length of Visible Light 11h 15m
Length of Day
10h 15m
New Moon, 0% of the Moon is Illuminated
Feb 10
New Moon
Feb 17
First Quarter
Feb 25
Full
Mar 4
Last Quarter
Mar 11
New

Hourly Weather History & Observations

Time (EST) Temp. Windchill Dew Point Humidity Pressure Visibility Wind Dir Wind Speed Gust Speed Precip Events Conditions
12:55 AM 15.8 °F 2.1 °F 12.2 °F 86% 30.03 in 7.0 mi North 12.7 mph 26.5 mph N/A   Scattered Clouds
1:15 AM 15.8 °F 0.3 °F 12.2 °F 86% 30.04 in 10.0 mi NNW 16.1 mph 23.0 mph N/A   Mostly Cloudy
1:35 AM 15.8 °F 1.4 °F 10.4 °F 79% 30.05 in 9.0 mi North 13.8 mph 25.3 mph N/A   Scattered Clouds
1:55 AM 15.8 °F 4.2 °F 12.2 °F 86% 30.06 in 10.0 mi NNW 9.2 mph 27.6 mph N/A   Scattered Clouds
2:15 AM 15.8 °F 3.4 °F 10.4 °F 79% 30.07 in 10.0 mi NNW 10.4 mph 17.3 mph N/A   Partly Cloudy
2:35 AM 15.8 °F 5.1 °F 10.4 °F 79% 30.08 in 10.0 mi NNW 8.1 mph 19.6 mph N/A   Clear
2:55 AM 15.8 °F 3.4 °F 10.4 °F 79% 30.08 in 10.0 mi NNW 10.4 mph 17.3 mph N/A   Clear
3:15 AM 15.8 °F 3.4 °F 8.6 °F 73% 30.08 in 10.0 mi NNW 10.4 mph 18.4 mph N/A   Clear
3:35 AM 15.8 °F 1.4 °F 10.4 °F 79% 30.08 in 9.0 mi NNW 13.8 mph 20.7 mph N/A   Clear
3:55 AM 15.8 °F 3.4 °F 8.6 °F 73% 30.09 in 10.0 mi NNW 10.4 mph - N/A   Clear
4:15 AM 15.8 °F 2.1 °F 8.6 °F 73% 30.10 in 10.0 mi NNW 12.7 mph 20.7 mph N/A   Clear
4:55 AM 15.8 °F 3.4 °F 6.8 °F 68% 30.11 in 10.0 mi NNW 10.4 mph 17.3 mph N/A   Clear
5:15 AM 14.0 °F 1.2 °F 6.8 °F 73% 30.12 in 10.0 mi NNW 10.4 mph 17.3 mph N/A   Clear
5:35 AM 14.0 °F 2.0 °F 6.8 °F 73% 30.13 in 10.0 mi NW 9.2 mph 17.3 mph N/A   Clear
5:55 AM 14.0 °F 2.9 °F 6.8 °F 73% 30.15 in 10.0 mi NW 8.1 mph - N/A   Clear
6:16 AM 12.2 °F 1.7 °F 5.0 °F 73% 30.15 in 10.0 mi NW 6.9 mph - N/A   Clear
6:35 AM 12.2 °F 1.7 °F 6.8 °F 79% 30.16 in 10.0 mi NNW 6.9 mph 16.1 mph N/A   Clear
6:55 AM 12.2 °F 2.9 °F 6.8 °F 79% 30.17 in 10.0 mi NW 5.8 mph - N/A   Clear
7:15 AM 12.2 °F -1.0 °F 5.0 °F 73% 30.18 in 10.0 mi NNW 10.4 mph 16.1 mph N/A   Clear
7:35 AM 14.0 °F 2.9 °F 5.0 °F 67% 30.19 in 10.0 mi NNW 8.1 mph - N/A   Clear
7:55 AM 15.8 °F 4.2 °F 5.0 °F 62% 30.19 in 10.0 mi NNW 9.2 mph - N/A   Clear
8:15 AM 17.6 °F 4.3 °F 5.0 °F 58% 30.19 in 10.0 mi NNW 12.7 mph 17.3 mph N/A   Clear
8:35 AM 17.6 °F 4.3 °F 5.0 °F 58% 30.20 in 10.0 mi NNW 12.7 mph - N/A   Clear
9:15 AM 21.2 °F 9.5 °F 3.2 °F 46% 30.22 in 10.0 mi NNW 11.5 mph 18.4 mph N/A   Clear
9:35 AM 23.0 °F 12.4 °F 3.2 °F 43% 30.24 in 10.0 mi NNW 10.4 mph - N/A   Clear
9:55 AM 23.0 °F 11.7 °F 3.2 °F 43% 30.24 in 10.0 mi NNW 11.5 mph 20.7 mph N/A   Clear
10:15 AM 24.8 °F 14.6 °F 3.2 °F 40% 30.25 in 10.0 mi NNW 10.4 mph 20.7 mph N/A   Clear
10:36 AM 24.8 °F 13.4 °F 3.2 °F 40% 30.25 in 10.0 mi North 12.7 mph 19.6 mph N/A   Clear
10:55 AM 26.6 °F 16.2 °F 5.0 °F 40% 30.25 in 10.0 mi NNW 11.5 mph 19.6 mph N/A   Clear
11:15 AM 26.6 °F 15.2 °F 5.0 °F 40% 30.24 in 10.0 mi North 13.8 mph 21.9 mph N/A   Clear
11:35 AM 28.4 °F 18.5 °F 6.8 °F 40% 30.25 in 10.0 mi NNW 11.5 mph 19.6 mph N/A   Clear
11:55 AM 30.2 °F 22.6 °F 6.8 °F 37% 30.25 in 10.0 mi North 8.1 mph 18.4 mph N/A   Clear
12:15 PM 30.2 °F 21.9 °F 6.8 °F 37% 30.24 in 10.0 mi North 9.2 mph - N/A   Clear
12:36 PM 32.0 °F 21.6 °F 5.0 °F 32% 30.24 in 10.0 mi NW 15.0 mph - N/A   Clear
12:55 PM 30.2 °F 19.8 °F 5.0 °F 34% 30.24 in 10.0 mi North 13.8 mph 20.7 mph N/A   Clear
1:15 PM 33.8 °F 25.8 °F 3.2 °F 28% 30.24 in 10.0 mi NNW 10.4 mph 16.1 mph N/A   Clear
1:35 PM 33.8 °F 27.0 °F 3.2 °F 28% 30.25 in 10.0 mi NNW 8.1 mph - N/A   Clear
1:55 PM 35.6 °F 28.0 °F 6.8 °F 30% 30.25 in 10.0 mi WNW 10.4 mph 16.1 mph N/A   Clear
2:15 PM 35.6 °F 28.6 °F 3.2 °F 26% 30.24 in 10.0 mi NW 9.2 mph - N/A   Clear
2:35 PM 32.0 °F 24.8 °F 5.0 °F 32% 30.25 in 10.0 mi West 8.1 mph - N/A   Clear
2:55 PM 32.0 °F 26.4 °F 6.8 °F 35% 30.25 in 10.0 mi WNW 5.8 mph - N/A   Clear
3:16 PM 32.0 °F 25.6 °F 6.8 °F 35% 30.25 in 10.0 mi WNW 6.9 mph 17.3 mph N/A   Clear
3:35 PM 32.0 °F 24.2 °F 6.8 °F 35% 30.25 in 10.0 mi WNW 9.2 mph - N/A   Clear
3:55 PM 30.2 °F 21.3 °F 8.6 °F 40% 30.26 in 10.0 mi NW 10.4 mph - N/A   Clear
4:15 PM 30.2 °F 22.6 °F 6.8 °F 37% 30.26 in 10.0 mi NW 8.1 mph - N/A   Clear
4:35 PM 30.2 °F 23.4 °F 6.8 °F 37% 30.27 in 10.0 mi NW 6.9 mph - N/A   Clear
4:55 PM 28.4 °F 23.3 °F 6.8 °F 40% 30.28 in 10.0 mi NW 4.6 mph - N/A   Clear
5:15 PM 28.4 °F 23.3 °F 6.8 °F 40% 30.29 in 10.0 mi NW 4.6 mph - N/A   Clear
5:35 PM 28.4 °F 24.6 °F 8.6 °F 43% 30.30 in 10.0 mi NW 3.5 mph - N/A   Clear
6:15 PM 26.6 °F - 8.6 °F 47% 30.31 in 10.0 mi Calm Calm - N/A   Clear
6:35 PM 24.8 °F - 8.6 °F 50% 30.32 in 10.0 mi Calm Calm - N/A   Clear
6:55 PM 23.0 °F - 8.6 °F 54% 30.32 in 10.0 mi Calm Calm - N/A   Clear
7:15 PM 24.8 °F 20.5 °F 6.8 °F 46% 30.33 in 10.0 mi NNW 3.5 mph - N/A   Clear
7:35 PM 23.0 °F - 6.8 °F 50% 30.32 in 10.0 mi Calm Calm - N/A   Clear
7:55 PM 24.8 °F 20.5 °F 5.0 °F 43% 30.34 in 10.0 mi North 3.5 mph - N/A   Clear
8:15 PM 23.0 °F - 5.0 °F 46% 30.33 in 10.0 mi Calm Calm - N/A   Clear
8:35 PM 21.2 °F - 6.8 °F 54% 30.33 in 10.0 mi Calm Calm - N/A   Clear
8:55 PM 21.2 °F 16.4 °F 6.8 °F 54% 30.32 in 10.0 mi NNW 3.5 mph - N/A   Clear
9:15 PM 19.4 °F 14.3 °F 6.8 °F 58% 30.32 in 10.0 mi North 3.5 mph - N/A   Clear
9:35 PM 19.4 °F 14.3 °F 6.8 °F 58% 30.31 in 10.0 mi North 3.5 mph - N/A   Clear
9:55 PM 15.8 °F - 6.8 °F 68% 30.31 in 10.0 mi Calm Calm - N/A   Clear
10:15 PM 17.6 °F - 6.8 °F 63% 30.31 in 10.0 mi Calm Calm - N/A   Clear
10:35 PM 17.6 °F - 6.8 °F 63% 30.31 in 10.0 mi Calm Calm - N/A   Clear
10:55 PM 17.6 °F - 6.8 °F 63% 30.31 in 10.0 mi Calm Calm - N/A   Clear
11:15 PM 17.6 °F 12.3 °F 5.0 °F 58% 30.31 in 10.0 mi WSW 3.5 mph - N/A   Clear
11:35 PM 12.2 °F - 6.8 °F 79% 30.32 in 10.0 mi Calm Calm - N/A   Clear
11:55 PM 12.2 °F - 6.8 °F 79% 30.33 in 10.0 mi Calm Calm - N/A   Clear